Dewpoint
69 64 56 51 41 45 44 45 53 53 51 54 54 52 52 55 52 51 62 63 69 72 74 75 74 75 74 75 75 75 75 75 75 75 75 75 75 74 74 74 74 73 72 71 71 72 72 72 73
67 60 48 47 43 40 39 45 50 52 51 55 54 54 53 52 62 62 62 68 69 73 74 73 74 75 74 75 75 75 75 75 75 74 74 73 74 74 73 74 74 73 72 71 71 71 72 72 72
59 47 42 40 42 38 38 43 50 53 50 52 53 55 54 57 62 62 66 69 71 73 74 73 74 75 75 74 75 75 75 75 74 74 73 73 74 75 75 75 75 73 72 72 71 71 72 72 73
43 42 42 39 38 39 38 41 52 52 52 52 54 54 57 63 62 65 68 71 72 73 73 73 74 76 75 74 74 75 75 75 74 73 74 74 74 75 75 75 75 74 72 72 72 72 73 73 73
45 42 37 37 37 38 39 39 52 52 51 50 55 55 58 64 66 68 70 70 70 71 74 73 75 75 75 73 73 74 75 75 75 74 74 74 75 75 75 75 75 75 73 72 72 73 74 73 73
37 41 34 29 35 36 36 37 39 50 52 54 54 55 59 65 66 67 69 69 70 71 74 73 75 75 75 74 75 75 75 75 75 75 75 75 75 75 75 75 75 75 75 74 73 74 73 73 73
37 39 36 34 30 29 28 32 34 35 42 51 56 55 60 64 65 65 68 71 70 71 73 74 74 74 75 75 75 75 75 75 75 75 75 75 75 75 75 74 75 75 75 75 74 73 72 72 72
36 36 33 32 30 28 31 24 26 33 33 58 58 55 58 63 63 65 70 70 69 70 73 73 73 73 73 73 74 75 75 75 75 75 75 75 75 75 74 74 74 74 74 74 73 73 72 72 73
29 26 25 26 27 27 26 24 23 40 50 56 58 58 60 62 64 65 67 67 67 69 71 73 73 73 73 72 72 74 74 74 75 74 74 74 73 73 72 72 73 73 73 73 73 73 73 72 73
24 24 26 26 26 25 27 22 22 54 55 57 59 62 62 63 63 63 65 64 65 67 70 72 72 72 72 71 71 72 72 73 73 73 73 72 71 71 70 71 72 73 73 73 73 73 73 73 71
27 22 23 26 27 28 27 27 14 55 54 57 58 61 61 63 62 61 61 65 65 66 68 70 71 71 71 70 72 72 72 72 72 72 72 70 69 70 69 69 69 71 72 71 72 72 72 71 69
33 29 29 29 29 30 28 18 23 51 51 58 60 61 61 62 61 60 60 60 65 67 67 70 71 71 71 71 71 71 71 72 71 71 71 69 68 67 67 67 66 68 69 70 69 70 70 70 69
31 32 30 30 30 29 25 25 21 24 57 59 60 60 61 61 62 62 61 61 62 66 68 68 70 71 70 70 71 70 71 70 71 70 70 69 68 66 66 66 66 67 68 68 68 68 68 69 68
25 28 27 23 22 24 25 23 27 51 57 57 59 59 60 61 62 62 62 63 63 64 67 69 69 70 69 70 70 69 70 70 69 70 69 69 67 66 66 66 66 67 67 67 66 66 66 68 68
18 16 16 12 12 13 21 15 26 53 56 56 58 58 59 59 61 61 62 63 64 63 65 68 69 69 68 69 69 69 69 69 69 69 69 69 68 66 66 65 66 67 67 68 67 65 67 68 68
11 12 7 9 12 12 12 6 38 57 57 58 59 60 61 62 63 64 62 63 64 63 64 66 67 67 67 68 68 68 68 68 68 68 68 68 68 68 66 65 65 66 67 66 67 66 66 67 67
8 8 8 9 8 5 12 16 48 57 58 58 59 60 61 62 64 65 65 65 64 63 63 65 66 66 67 67 67 66 67 67 67 67 67 67 68 68 67 67 67 66 67 66 66 66 67 66 66
8 9 22 11 10 8 32 41 55 57 57 58 58 59 60 60 62 63 64 64 64 64 63 63 64 65 65 66 66 66 66 67 68 66 66 67 67 68 68 67 67 67 66 66 66 66 66 66 66
9 11 10 11 13 10 31 51 53 55 55 56 57 58 59 60 61 62 62 62 63 64 63 62 63 64 65 65 64 64 64 65 66 66 66 67 68 68 68 68 68 67 66 66 66 65 64 66 66
14 16 17 14 24 27 49 49 51 52 53 54 56 58 58 59 60 60 60 60 60 61 62 62 63 64 65 65 66 66 65 66 66 65 65 66 66 67 67 66 67 66 65 64 64 65 64 65 67
19 17 8 25 36 38 46 43 48 50 52 53 55 58 58 57 58 59 58 58 58 59 60 60 61 62 62 63 66 67 67 66 64 64 65 65 66 66 65 66 65 65 64 63 64 63 62 61 63
15 5 6 9 27 30 31 37 42 48 49 51 53 57 57 56 57 57 57 56 56 55 56 56 57 58 60 60 62 64 64 64 63 63 63 65 65 64 66 65 65 65 65 63 63 64 62 62 60
6 5 5 10 1 1 0 32 36 47 48 48 49 55 56 55 55 55 54 54 54 54 54 54 54 54 55 56 59 60 59 59 59 59 58 59 58 57 59 60 63 64 64 64 64 63 63 62 61
9 8 9 8 5 12 10 1 2 43 48 49 48 52 55 55 54 54 54 54 53 53 52 52 52 52 53 53 53 55 54 55 54 55 55 55 55 55 55 56 57 57 58 60 62 63 62 62 61
8 7 5 -2 -1 -2 6 5 6 24 44 48 47 51 54 54 53 53 52 52 51 51 50 50 50 50 51 51 51 51 51 52 52 52 52 52 51 50 50 52 53 54 55 55 56 57 60 61 61
9 5 4 -5 4 1 15 10 11 36 45 46 48 51 53 53 53 53 52 52 51 51 50 50 50 49 50 50 49 49 50 49 49 50 50 50 49 48 48 48 49 50 50 51 52 55 55 55 55
11 5 10 10 13 9 9 17 36 44 44 46 46 51 52 53 53 52 53 52 51 50 50 50 50 50 50 49 49 48 48 48 47 48 50 49 47 48 47 47 47 48 48 48 49 50 50 51 53
9 10 6 8 7 8 9 15 18 38 41 44 46 49 51 52 52 52 52 52 51 51 51 51 51 50 50 49 49 48 48 47 46 47 46 46 46 46 46 46 46 46 46 47 47 47 48 48 49
9 9 11 12 12 8 6 7 20 35 42 43 44 47 50 51 52 52 52 53 53 52 51 50 50 50 50 50 49 48 47 47 46 46 46 45 45 45 45 45 45 46 46 47 47 46 46 47 48
16 12 12 13 11 14 12 11 25 35 41 44 44 46 48 51 51 51 51 52 51 51 50 49 49 49 49 49 48 48 47 48 46 46 45 45 45 45 45 45 45 45 45 45 45 45 46 46 46
Lifted_Index
0 2 4 4 3 2 1 0 0 0 -0 -0 -0 -0 -0 0 1 1 2 2 0 -2 -3 -3 -3 -3 -2 -2 -2 -2 -2 -2 -2 -2 -2 -2 -2 -2 -2 -2 -2 -1 -1 -0 -0 -1 -1 -2 -2
2 4 4 4 3 2 1 0 0 0 -0 -1 -1 -0 0 1 1 2 2 1 -0 -2 -3 -3 -3 -3 -3 -2 -2 -2 -2 -2 -2 -2 -2 -2 -2 -2 -2 -2 -2 -1 -1 -0 -0 -1 -1 -2 -2
5 5 5 4 3 2 1 0 0 0 -0 -1 -1 -1 -0 1 1 1 1 -0 -2 -3 -3 -3 -3 -3 -3 -3 -3 -3 -3 -3 -2 -2 -2 -2 -2 -3 -3 -3 -2 -2 -1 -1 -1 -1 -1 -2 -2
7 6 5 3 3 2 1 0 -0 -0 0 -0 -1 -1 -0 -0 0 0 -0 -1 -3 -3 -4 -3 -3 -3 -3 -3 -3 -3 -3 -3 -3 -2 -2 -2 -3 -3 -3 -3 -3 -2 -2 -1 -1 -1 -2 -2 -2
7 6 4 2 2 2 2 2 1 0 0 0 -1 -1 -1 -1 -1 -1 -2 -2 -3 -4 -4 -4 -4 -4 -3 -3 -3 -4 -4 -4 -3 -3 -3 -3 -3 -4 -4 -4 -4 -3 -3 -2 -2 -2 -2 -2 -2
7 6 4 2 2 2 3 3 3 2 2 1 -1 -1 -1 -1 -1 -2 -2 -2 -3 -4 -4 -4 -4 -4 -3 -3 -4 -4 -4 -4 -4 -4 -4 -4 -4 -4 -4 -4 -4 -4 -4 -3 -3 -3 -2 -2 -2
6 5 3 2 2 2 3 5 5 4 3 1 -1 -1 -1 -1 -2 -2 -2 -3 -3 -4 -4 -4 -4 -4 -3 -3 -4 -5 -5 -5 -5 -4 -4 -4 -4 -4 -4 -4 -4 -4 -4 -4 -3 -3 -2 -2 -2
7 6 4 3 2 2 4 5 5 4 2 0 -1 -1 -1 -2 -2 -2 -2 -2 -2 -3 -4 -4 -4 -4 -4 -4 -4 -5 -5 -5 -5 -5 -5 -4 -4 -4 -3 -3 -3 -3 -3 -3 -3 -3 -2 -2 -2
8 5 4 3 3 3 4 4 3 1 0 -1 -2 -2 -1 -2 -2 -2 -1 -1 -2 -3 -3 -4 -4 -4 -4 -4 -4 -4 -5 -5 -5 -5 -4 -4 -3 -3 -3 -2 -3 -3 -3 -3 -3 -3 -3 -3 -3
7 5 4 4 4 3 4 4 1 -1 -2 -3 -2 -2 -2 -2 -2 -2 -1 -1 -1 -2 -3 -4 -4 -4 -3 -3 -4 -4 -4 -4 -4 -4 -4 -3 -2 -2 -2 -2 -2 -2 -3 -3 -3 -4 -4 -3 -3
6 5 4 5 4 4 4 4 1 -2 -3 -3 -3 -2 -2 -2 -2 -2 -1 -1 -1 -2 -3 -3 -3 -3 -3 -3 -3 -4 -4 -4 -4 -4 -3 -2 -1 -1 -1 -1 -1 -1 -2 -3 -3 -3 -4 -3 -3
6 6 6 5 5 4 4 4 2 -2 -4 -4 -3 -2 -1 -1 -2 -2 -2 -1 -1 -2 -2 -3 -3 -3 -3 -3 -3 -3 -4 -4 -4 -3 -3 -2 -1 -0 0 0 0 -0 -1 -2 -2 -2 -3 -3 -2
6 6 6 6 6 5 4 5 3 -1 -3 -4 -3 -2 -1 -1 -2 -2 -2 -2 -2 -2 -2 -3 -3 -3 -3 -3 -3 -3 -3 -3 -3 -3 -2 -2 -1 -0 0 1 1 0 -0 -1 -1 -1 -1 -2 -2
7 7 7 6 6 5 4 4 3 -1 -3 -4 -3 -2 -1 -2 -2 -2 -2 -3 -3 -2 -2 -3 -3 -3 -3 -3 -3 -3 -3 -3 -3 -3 -2 -2 -1 -0 0 1 0 -0 -1 -1 -1 -1 -1 -1 -1
7 7 7 6 5 5 5 4 2 -2 -4 -4 -3 -2 -2 -2 -3 -3 -3 -3 -3 -2 -2 -2 -3 -3 -3 -3 -3 -3 -3 -3 -2 -2 -2 -2 -1 -1 -0 0 -0 -1 -1 -1 -1 -1 -1 -1 -1
7 6 5 5 5 5 4 4 1 -3 -4 -4 -3 -2 -2 -3 -3 -3 -3 -3 -3 -3 -2 -2 -2 -3 -3 -3 -3 -3 -3 -3 -2 -2 -2 -2 -1 -1 -1 -0 -1 -1 -1 -2 -2 -2 -2 -1 -1
5 5 4 4 4 4 4 3 0 -4 -5 -4 -3 -3 -3 -3 -3 -3 -3 -3 -3 -3 -3 -2 -2 -2 -2 -3 -3 -3 -2 -2 -2 -2 -2 -1 -1 -1 -1 -1 -1 -1 -2 -2 -2 -2 -2 -2 -1
4 4 3 4 4 4 3 2 -1 -4 -5 -5 -4 -4 -4 -3 -3 -3 -3 -3 -3 -3 -3 -3 -3 -2 -2 -2 -2 -2 -2 -1 -1 -1 -1 -1 -2 -2 -2 -2 -2 -2 -2 -2 -2 -2 -2 -2 -2
3 3 3 3 3 3 2 0 -2 -4 -5 -5 -4 -4 -4 -4 -4 -4 -4 -4 -3 -3 -3 -3 -3 -3 -2 -2 -2 -2 -2 -2 -2 -2 -2 -2 -2 -2 -3 -3 -3 -3 -3 -2 -2 -2 -2 -2 -2
3 2 2 3 3 2 1 -1 -2 -4 -4 -5 -5 -4 -5 -5 -5 -5 -5 -5 -4 -4 -4 -3 -3 -3 -3 -3 -2 -2 -2 -2 -3 -2 -2 -2 -3 -3 -3 -3 -3 -3 -3 -2 -2 -2 -1 -1 -1
2 2 2 2 2 2 0 -1 -2 -3 -4 -4 -4 -5 -5 -5 -5 -6 -6 -5 -5 -5 -4 -4 -4 -3 -3 -3 -3 -3 -3 -3 -3 -3 -3 -3 -3 -3 -3 -3 -3 -3 -2 -2 -2 -1 -1 -0 0
2 2 2 2 2 2 1 -0 -2 -3 -4 -4 -4 -5 -5 -5 -5 -5 -5 -5 -5 -5 -5 -5 -4 -4 -4 -3 -4 -4 -4 -4 -4 -3 -3 -3 -3 -3 -3 -3 -3 -2 -2 -2 -2 -2 -1 -0 0
1 1 2 2 2 1 1 1 -1 -2 -3 -4 -4 -5 -5 -5 -5 -4 -3 -3 -4 -5 -5 -5 -5 -5 -4 -4 -4 -4 -4 -4 -4 -3 -3 -3 -3 -3 -3 -3 -2 -2 -2 -2 -2 -2 -2 -1 -1
1 1 1 1 1 1 2 2 1 -1 -2 -3 -4 -4 -5 -4 -4 -3 -2 -1 -2 -3 -4 -4 -5 -4 -4 -4 -5 -4 -4 -4 -4 -3 -3 -3 -2 -2 -1 -1 -1 -1 -0 -1 -1 -1 -1 -1 -1
1 1 1 0 0 1 1 2 2 1 -1 -2 -3 -3 -4 -4 -3 -2 -0 1 0 -0 -1 -2 -2 -2 -2 -2 -3 -3 -2 -2 -2 -1 -1 -0 1 1 2 3 3 2 2 1 0 -0 -1 -1 -1
1 1 1 0 0 1 1 2 2 1 0 -0 -1 -2 -3 -3 -3 -1 1 2 3 2 2 2 2 2 2 2 2 2 2 2 3 3 4 4 5 6 6 6 6 5 5 3 2 2 1 -0 -0
1 1 1 1 1 1 1 2 2 1 1 0 -0 -1 -2 -3 -2 -1 2 3 4 4 4 5 5 5 5 5 5 6 6 7 7 7 8 8 8 8 8 8 8 7 7 6 5 4 3 2 1
1 1 1 1 1 1 1 2 2 2 1 1 0 -1 -2 -2 -2 -0 2 3 4 5 5 5 6 6 6 7 7 8 8 9 9 9 9 9 9 9 8 8 8 8 8 7 7 6 6 5 4
1 1 1 1 1 1 1 2 2 2 2 1 0 -0 -1 -2 -2 -1 1 2 3 4 5 5 6 7 7 8 8 9 9 9 9 9 9 9 9 9 9 9 8 8 8 8 8 7 7 7 7
1 1 1 1 2 1 1 2 3 3 2 1 0 -0 -1 -2 -2 -1 -0 1 2 3 4 5 6 7 7 8 9 9 9 9 9 9 9 9 9 9 9 9 9 8 8 8 8 8 8 8 8